Weather History for Leadville, CO

Change the Weather History Date:

Sunday, September 29, 2013

  Actual Average Record
Temperature  
Mean Temperature 42 °F -  
Max Temperature 56 °F 56 °F 74 °F (2010)
Min Temperature 28 °F 28 °F 13 °F (1988)
Degree Days  
Heating Degree Days 23 23  
Month to date heating degree days 465 552  
Since 1 July heating degree days 1067 1274  
Cooling Degree Days 0 0  
Month to date cooling degree days 0 0  
Year to date cooling degree days 0 0  
Moisture  
Dew Point 15 °F    
Average Humidity 45    
Maximum Humidity 69    
Minimum Humidity 20    
Precipitation  
Precipitation 0.00 in 0.02 in 0.23 in (1986)
Month to date precipitation 3.58 1.05  
Year to date precipitation 15.22 10.00  
Sea Level Pressure  
Sea Level Pressure 30.00 in    
Wind  
Wind Speed 10 mph (North)    
Max Wind Speed 22 mph    
Max Gust Speed 29 mph    
Visibility 10 miles    
Events      
T = Trace of Precipitation, MM = Missing Value Source: NWS Daily Summary

Daily Weather History Graph

Daily Weather History Graph

Search for Another Location

Airport:

Trip Planner

Search our weather history database for the weather conditions in past years. The results will help you decide how hot, cold, wet, or windy it might be!

Date:

Astronomy

Sep. 29, 2013 Rise Set
Actual Time 6:59 AM MDT 6:50 PM MDT
Civil Twilight 6:33 AM MDT 7:17 PM MDT
Nautical Twilight 6:01 AM MDT 7:48 PM MDT
Astronomical Twilight 5:30 AM MDT 8:19 PM MDT
Moon 1:45 AM MDT (9/29) 3:46 PM MDT (9/29)
Length of Visible Light 12h 44m
Length of Day
11h 50m
Waning Crescent, 26% of the Moon is Illuminated
Sep 29
Waning Crescent
Oct 4
New
Oct 11
First Quarter
Oct 18
Full
Oct 26
Last Quarter

Hourly Weather History & Observations

Time (MDT) Temp. Windchill Dew Point Humidity Pressure Visibility Wind Dir Wind Speed Gust Speed Precip Events Conditions
12:53 AM 28.0 °F 20.0 °F 19.0 °F 69% 30.12 in 10.0 mi ENE 8.1 mph - N/A   Clear
1:53 AM 28.9 °F 22.8 °F 19.0 °F 67% 30.10 in 10.0 mi NE 5.8 mph - N/A   Clear
2:53 AM 30.0 °F 22.4 °F 16.0 °F 56% 30.07 in 10.0 mi NE 8.1 mph - N/A   Clear
3:53 AM 33.1 °F 28.7 °F 12.9 °F 43% 30.03 in 10.0 mi NNE 4.6 mph - N/A   Clear
4:53 AM 32.0 °F 25.6 °F 14.0 °F 48% 30.04 in 10.0 mi NE 6.9 mph - N/A   Clear
5:53 AM 32.0 °F 24.2 °F 14.0 °F 48% 30.04 in 10.0 mi NNE 9.2 mph - N/A   Clear
6:53 AM 33.1 °F 26.1 °F 12.9 °F 43% 30.07 in 10.0 mi NE 8.1 mph - N/A   Clear
7:53 AM 37.0 °F 31.6 °F 14.0 °F 39% 30.09 in 10.0 mi NNE 6.9 mph - N/A   Clear
8:53 AM 43.0 °F 37.7 °F 12.0 °F 28% 30.06 in 10.0 mi North 9.2 mph 16.1 mph N/A   Clear
9:53 AM 46.0 °F 40.2 °F 12.9 °F 26% 30.07 in 10.0 mi North 12.7 mph 19.6 mph N/A   Clear
10:53 AM 48.9 °F - 14.0 °F 25% 30.07 in 10.0 mi WNW 13.8 mph 26.5 mph N/A   Clear
11:53 AM 51.1 °F - 12.9 °F 22% 29.99 in 10.0 mi WNW 12.7 mph 21.9 mph N/A   Clear
12:53 PM 52.0 °F - 16.0 °F 24% 30.00 in 10.0 mi NNW 10.4 mph 18.4 mph N/A   Clear
1:53 PM 55.0 °F - 18.0 °F 23% 29.93 in 10.0 mi NW 13.8 mph 20.7 mph N/A   Clear
2:53 PM 55.9 °F - 17.1 °F 22% 29.91 in 10.0 mi WNW 15.0 mph 21.9 mph N/A   Clear
3:53 PM 55.0 °F - 15.1 °F 21% 29.89 in 10.0 mi West 18.4 mph 25.3 mph N/A   Clear
4:53 PM 53.1 °F - 15.1 °F 22% 29.92 in 10.0 mi WNW 15.0 mph 26.5 mph N/A   Clear
5:53 PM 51.1 °F - 15.1 °F 24% 29.94 in 10.0 mi NNW 10.4 mph 16.1 mph N/A   Clear
6:53 PM 46.0 °F 40.6 °F 17.1 °F 31% 29.96 in 10.0 mi NW 11.5 mph - N/A   Clear
7:53 PM 43.0 °F 38.2 °F 18.0 °F 37% 29.99 in 10.0 mi WNW 8.1 mph - N/A   Clear
8:53 PM 43.0 °F 37.7 °F 17.1 °F 35% 29.94 in 10.0 mi North 9.2 mph - N/A   Clear
9:53 PM 42.1 °F 38.4 °F 16.0 °F 35% 29.93 in 10.0 mi North 5.8 mph - N/A   Clear
10:53 PM 39.9 °F 35.1 °F 15.1 °F 36% 29.92 in 10.0 mi NE 6.9 mph - N/A   Clear
11:53 PM 44.1 °F 38.6 °F 15.1 °F 31% 29.90 in 10.0 mi North 10.4 mph - N/A   Mostly Cloudy